Location: Downe
(51.3167°N, 0.0500°E)
Time: 11:16:04
(UTC+00:00)

Cosmos 2322 Rocket - Pass Details

Date: 17 November 2019
Orbit: 832 x 851 km, 71.0° (Epoch: 15 December)

Event Time Altitude Azimuth Distance (km) Brightness Sun altitude
Exits shadow 03:19:18 25° 32° (NNE) 1,647 4.0 -37.1°
Maximum altitude 03:19:46 25° 39° (NE) 1,636 4.0 -37.0°
Drops below altitude 10° 03:24:25 10° 95° (E) 2,469 5.3 -36.3°
Sets 03:27:18 0° 108° (ESE) 3,405 6.1 -35.9°
